Regional Weather Roundup
Issued by NWS

Home | Current Version | Previous Version | Graphics & Text | Print | Product List | Glossary On
Versions: 1 2 3 4 5 6 7 8 9 10 11 12 13 14 15 16 17 18 19 20 21 22 23 24 25 26 27 28 29 30 31 32 33 34 35 36 37 38 39 40 41 42 43 44 45 46 47 48 49 50
000
ASUS43 KLOT 010300
RWRIL

ILLINOIS REGIONAL WEATHER ROUNDUP
NATIONAL WEATHER SERVICE CHICAGO/ROMEOVILLE IL
1000 PM CDT MON AUG 31 2015

NOTE: "FAIR" INDICATES FEW OR NO CLOUDS BELOW 12,000 FEET WITH NO
SIGNIFICANT WEATHER AND/OR OBSTRUCTIONS TO VISIBILITY.

* THESE STATIONS ARE NOT UNDER NWS QUALITY CONTROL. THEY ALSO MAY NOT
  REPORT WEATHER SUCH AS PRECIPITATION OR FOG.

ILZ001-002-007-009-015-016-024-010400-
NORTHWEST ILLINOIS

CITY           SKY/WX    TMP DP  RH WIND       PRES   REMARKS
MOLINE         CLEAR     76  71  85 SE6       29.99R
$$

ILZ003-004-008-010-011-017-018-010400-
NORTH CENTRAL ILLINOIS

CITY           SKY/WX    TMP DP  RH WIND       PRES   REMARKS
ROCKFORD       NOT AVBL
$$

ILZ005-006-012>014-019>023-010400-
NORTHEAST ILLINOIS

CITY           SKY/WX    TMP DP  RH WIND       PRES   REMARKS
CHICAGO-OHARE  CLEAR     73  67  81 SE6       30.04R
CHICAGO-MIDWAY CLEAR     78  68  71 CALM      30.04R HX  80
AURORA         CLEAR     71  67  87 CALM      30.05R FOG
WAUKEGAN       NOT AVBL
DUPAGE AIRPORT CLEAR     70  67  90 CALM      30.04R FOG
WHEELING       CLEAR     71  66  84 CALM      30.05R
NORTHERLY ISL    N/A     70  67  90 CALM        N/A
$$

LMZ740>746-010400-
SOUTHERN LAKE MICHIGAN

STATION/POSITION SKY/WX   TEMP    WIND        PRES    VSBY  WAVE
                          AIR SEA DIR/SP/G                  HT/PER
                          (F)     (DEG/KT/KT) (MB)    (MI)  (FT/S)
SOUTHERN BUOY              70 70  130/  6/  6   N/A
WILMETTE HARBOR            67 61  240/  2/  2   N/A           0
HARRISON CRIB              72     170/  4/  4   N/A
BURNHAM HARBOR             71        CALM       N/A
CALUMET HARBOR             74     110/  3/  5   N/A
BURNS HARBOR               79     150/  4/  5 1017.6R
MICHIGAN CITY              76     120/  5/  5   N/A
MICHIGAN CITY 6N           74 72  130/  4/  6   N/A           0
ST. JOSEPH                 75 73  170/  6/  6   N/A           0
$$

ILZ025>027-034>036-040-047-049-050-058-095>099-010400-
WEST-CENTRAL ILLINOIS

CITY           SKY/WX    TMP DP  RH WIND       PRES   REMARKS
$$

ILZ028>032-037-038-041>044-048-051>054-059>061-010400-
CENTRAL ILLINOIS

CITY           SKY/WX    TMP DP  RH WIND       PRES   REMARKS
PEORIA         NOT AVBL
SPRINGFIELD    CLEAR     79  71  76 S8        30.04R HX  82
TAYLORVILLE    NOT AVBL
$$

ILZ033-039-045-046-055>057-062-063-010400-
EAST-CENTRAL ILLINOIS

CITY           SKY/WX    TMP DP  RH WIND       PRES   REMARKS
CHAMPAIGN      CLEAR     72  68  87 S3        30.07S
$$

ILZ079-100>102-010400-
SOUTHWEST ILLINOIS

CITY           SKY/WX    TMP DP  RH WIND       PRES   REMARKS
CAHOKIA*       CLEAR     77  72  84 SE5       30.04R
$$

ILZ064>066-069>071-074>076-080>082-084>086-088>090-092>094-010400-
SOUTH-CENTRAL ILLINOIS

CITY           SKY/WX    TMP DP  RH WIND       PRES   REMARKS
CARBONDALE     CLEAR     74  70  87 CALM      30.07R
$$

ILZ067-068-072-073-078-083-087-091-010400-
SOUTHEAST ILLINOIS

CITY           SKY/WX    TMP DP  RH WIND       PRES   REMARKS
LAWRENCEVILLE  CLEAR     73  67  81 S3        30.08R
$$

ABBREVIATIONS USED IN REMARKS
   TC - TEMPERATURE IN CELSIUS
  WCI - WIND CHILL INDEX
   HX - HEAT INDEX
  VSB - VISIBILITY
$$



USA.gov is the U.S. government's official web portal to all federal, state and local government web resources and services.